Starlink 30854

operational
NORAD ID: 58244 Int'l Des: 2023-171 Owner: SPXS Country: US Constellation: starlink
LEOCIRCULAR

关于 Starlink 30854

正在加载描述...

实时位置

正在加载3D地球...

即将过境

高度历史

Altitude vs Time

uPlot chart will show altitude changes over time

两行轨道根数

1 58244U 23171Q 25258.07169097 .00000925 00000-0 83562-4 0 9992
2 58244 43.0042 161.4720 0000935 264.8256 95.2480 15.02535672103298
Epoch: Sep 15, 2025 • Age: 24 hours

当前状态

高度 562.9 km
速度 7.59 km/s
星下点 43.15°N, 138.65°W
发射日期 Nov 8, 2023
运行时间 1.8 years
类型 internet

技术详情

分类 Payload
质量 730.00 kg
干质量 700.00 kg
总质量 730.00 kg
长度 0.30 m
直径 4.10 m
跨度 29.00 m
形状 Box + pan
制造商 SPXS
平台类型 Starlink V2M
阶段状态 In Orbit
所有者/国家 SPXS/US

大型星座

Loading constellations...